[[{"header":{"parameterUnit":"m.s-1","parameterCategory":1,"la1":30.2991,"la2":30.254,"lo1":-89.0895,"lo2":-89.0444,"dy":0.0017,"dx":0.0017,"nx":28,"ny":28,"refTime":"2023-09-19T03:00:00:Z","depth":0,"parameterNumber":2,"parameterNumberName":"U-component_of_WINDS"},"data":[0,0,0,0,0,0,0,0,0,0,0,0,0,0,0,0,0,0,0,0,0,0,0,0,0,0,0,0,0,0,0,0,0,0,0,0,0,0,0,0,0,0,0,0,0,0,0,0,0,0,0,0,0,0,0,0,0,0,-4.2057,-4.2058,0,-4.2102,-4.2103,-4.2103,-4.2047,-4.2045,-4.2043,-4.2041,-4.2084,-4.2087,-4.209,0,0,0,0,0,0,0,0,0,0,0,0,0,-4.1918,-4.1921,-4.2057,-4.2058,-4.2058,-4.2102,-4.2103,-4.2103,-4.2047,-4.2045,-4.2042,-4.204,-4.2083,-4.2087,-4.209,0,0,0,0,0,0,0,0,0,0,0,0,0,-4.1972,-4.1922,-4.2057,-4.2036,-4.2034,-4.2102,-4.2103,-4.2104,-4.2048,-4.2045,-4.2042,-4.2039,-4.2082,-4.2086,-4.2091,-4.2181,0,0,-4.2105,-4.2107,0,0,0,0,0,0,0,0,-4.1969,-4.1977,-4.2038,-4.2037,-4.2036,-4.2066,-4.207,-4.2129,-4.2049,-4.2043,-4.2041,-4.2037,-4.208,-4.2085,-4.21,-4.2183,-4.2185,-4.2105,-4.2108,-4.211,-4.2111,0,0,0,0,0,0,0,-4.1966,-4.1975,-4.2075,-4.2039,-4.2038,-4.2022,-4.2027,-4.2081,-4.2078,-4.2043,-4.2039,-4.2045,-4.2079,-4.2096,-4.2101,-4.2186,-4.2105,-4.2109,-4.2112,-4.2114,-4.2341,-4.2344,0,0,0,0,0,0,-4.1965,-4.1972,-4.2074,-4.2076,-4.1994,-4.2027,-4.2032,-4.2059,-4.2077,-4.2077,-4.2048,-4.2042,-4.2089,-4.2095,-4.2102,-4.2205,-4.211,-4.2114,-4.2117,-4.2337,-4.2341,-4.2345,0,0,0,0,0,0,-4.1962,-4.1975,-4.2072,-4.2023,-4.2035,-4.2033,-4.2064,-4.2062,-4.2078,-4.2081,-4.208,-4.2065,-4.2087,-4.2095,-4.2161,-4.2206,-4.2116,-4.2121,-4.2333,-4.2338,-4.2343,-4.2414,0,0,0,0,0,0,-4.1958,-4.1974,-4.2009,-4.2025,-4.2037,-4.2132,-4.2067,-4.2065,-4.2087,-4.208,-4.2097,-4.2097,-4.2085,-4.2154,-4.2166,-4.221,-4.2124,-4.2329,-4.2336,-4.2341,-4.2408,-4.2421,-4.2432,0,0,0,0,0,-4.1954,-4.2028,-4.2011,-4.2024,-4.2082,-4.2134,-4.2141,-4.2127,-4.2091,-4.2125,-4.2126,-4.2097,-4.22,-4.2162,-4.2174,-4.2221,-4.2326,-4.2334,-4.2341,-4.2402,-4.2418,-4.2432,0,0,0,0,0,0,-4.2017,-4.2029,-4.2011,-4.2093,-4.2113,-4.2125,-4.2168,-4.2145,-4.2175,-4.2168,-4.2148,-4.2152,-4.2221,-4.2228,-4.2185,-4.2307,-4.2257,-4.2267,-4.2299,-4.2314,-4.2326,-4.2321,-4.2128,0,0,0,0,0,-4.2041,-4.2084,-4.2092,-4.2163,-4.2174,-4.217,-4.2192,-4.2179,-4.2199,-4.2206,-4.2213,-4.2232,-4.2268,-4.2292,-4.2326,-4.241,-4.241,-4.2448,-4.246,-4.247,-4.2478,-4.2518,-4.2533,-4.2369,-4.2369,-4.2369,0,0,-4.209,-4.2102,-4.213,-4.2176,-4.219,-4.2232,-4.2177,-4.2225,-4.2256,-4.2214,-4.2274,-4.228,-4.23,-4.2374,-4.2407,-4.2382,-4.2524,-4.2479,-4.2487,-4.2489,-4.2527,-4.2543,-4.2556,-4.2374,-4.2373,-4.2372,0,0,-4.22,-4.2215,-4.2274,-4.2289,-4.2311,-4.2307,-4.2321,-4.2336,-4.2338,-4.24,-4.2368,-4.2404,-4.2468,-4.2482,-4.2498,-4.2612,-4.2584,-4.2624,-4.2686,-4.2726,-4.2738,-4.275,-4.2786,-4.28,-4.2632,-4.2633,-4.2633,0,-4.2257,-4.2321,-4.2307,-4.2356,-4.2376,-4.2341,-4.2398,-4.2413,-4.2445,-4.2459,-4.2431,-4.2508,-4.252,-4.2594,-4.2622,-4.2638,-4.265,-4.262,-4.2738,-4.2749,-4.2759,-4.2794,-4.2808,-4.2637,-4.2636,-4.2636,-4.2636,0,-4.2388,-4.2433,-4.2478,-4.2509,-4.2534,-4.2588,-4.258,-4.2607,-4.2592,-4.259,-4.2652,-4.2664,-4.2698,-4.2716,-4.2702,-4.2788,-4.2771,-4.2742,-4.269,-4.278,-4.2811,-4.2825,-4.2643,-4.2641,-4.264,-4.2639,0,0,-4.2538,-4.256,-4.2576,-4.2588,-4.2609,-4.2643,-4.2694,-4.2728,-4.2749,-4.2773,-4.2812,-4.2867,-4.2839,-4.2857,-4.2844,-4.288,-4.2964,-4.2845,-4.2845,-4.2863,-4.3054,-4.3073,-4.3089,-4.2948,-4.295,-4.2952,-4.3051,0,-4.2644,-4.2733,-4.272,-4.2805,-4.2843,-4.281,-4.2854,-4.2871,-4.2871,-4.2903,-4.2903,-4.294,-4.2903,-4.2912,-4.2947,-4.2947,-4.3001,-4.294,-4.2981,-4.2983,-4.2972,-4.3106,-4.3127,-4.322,-4.3064,-4.3066,-4.3068,0,-4.278,-4.2807,-4.2895,-4.2907,-4.2923,-4.2963,-4.2991,-4.3023,-4.3041,-4.3038,-4.3058,-4.3038,-4.3087,-4.3038,-4.3103,-4.3061,-4.3078,-4.308,-4.3083,-4.3083,-4.3027,-4.3105,-4.3249,-4.3262,-4.3088,-4.3086,-4.3085,0,-4.2874,-4.2934,-4.2993,-4.3005,-4.3022,-4.305,-4.3058,-4.3073,-4.3093,-4.3117,-4.3129,-4.316,-4.3176,-4.3199,-4.3187,-4.3154,-4.3253,-4.3204,-4.3249,-4.3249,-4.3268,-4.3266,-4.3413,-4.3287,-4.3287,-4.3286,-4.3286,0,-4.2992,-4.3046,-4.3035,-4.3071,-4.3129,-4.3115,-4.3172,-4.3177,-4.319,-4.3224,-4.3199,-4.3231,-4.3216,-4.3248,-4.324,-4.3292,-4.3301,-4.3297,-4.3294,-4.3297,-4.3297,-4.3304,-4.3296,-4.329,-4.3289,-4.3288,-4.3288,0,-4.3106,-4.3101,-4.3163,-4.3174,-4.3177,-4.322,-4.3228,-4.326,-4.3259,-4.3303,-4.3312,-4.3309,-4.3344,-4.3336,-4.3375,-4.3369,-4.3434,-4.3425,-4.3428,-4.3424,-4.3468,-4.3462,-4.362,-4.3638,-4.3505,-4.3506,-4.3508,0,-4.3179,-4.322,-4.3234,-4.3256,-4.3266,-4.3301,-4.3321,-4.3308,-4.3329,-4.3351,-4.338,-4.3414,-4.3439,-4.3496,-4.3496,-4.3525,-4.3514,-4.3567,-4.3518,-4.3519,-4.3509,-4.3505,-4.3507,-4.3576,-4.3577,-4.3578,-4.358,0,-4.3308,-4.3303,-4.3333,-4.3362,-4.3387,-4.3409,-4.3428,-4.3447,-4.3435,-4.346,-4.3496,-4.3516,-4.3555,-4.3586,-4.3613,-4.362,-4.3596,-4.3596,-4.3607,-4.3608,-4.3607,-4.3604,-4.345,-4.3591,-4.359,-4.3589,-4.3588,-4.3588,-4.3401,-4.3434,-4.3448,-4.3482,-4.3495,-4.3513,-4.3543,-4.3545,-4.3575,-4.3605,-4.3596,-4.3635,-4.3649,-4.3682,-4.3692,-4.3722,-4.3701,-4.3719,-4.3722,-4.3726,-4.3729,-4.3606,-4.3727,-4.3727,-4.3727,-4.3726,-4.3726,0,-4.3525,-4.3532,-4.3563,-4.359,-4.3616,-4.3594,-4.3614,-4.3636,-4.3671,-4.3687,-4.3712,-4.3751,-4.3782,-4.3785,-4.3813,-4.3835,-4.3825,-4.3843,-4.3839,-4.384,-4.3748,-4.3733,-4.385,-4.385,-4.385,-4.385,-4.385,-4.385,-4.3592,-4.3645,-4.3641,-4.37,-4.3707,-4.3745,-4.3758,-4.3773,-4.3785,-4.383,-4.3855,-4.3857,-4.3866,-4.3895,-4.3921,-4.3921,-4.393,-4.3951,-4.3946,-4.3859,-4.3847,-4.3835,-4.3821,-4.3954,-4.3954,-4.4035,-4.4036,-4.4036]},{"header":{"parameterUnit":"m.s-1","parameterCategory":1,"la1":30.2991,"la2":30.254,"lo1":-89.0895,"lo2":-89.0444,"dy":0.0017,"dx":0.0017,"nx":28,"ny":28,"refTime":"2023-09-19T03:00:00:Z","depth":0,"parameterNumber":3,"parameterNumberName":"V-component_of_WINDS"},"data":[0,0,0,0,0,0,0,0,0,0,0,0,0,0,0,0,0,0,0,0,0,0,0,0,0,0,0,0,0,0,0,0,0,0,0,0,0,0,0,0,0,0,0,0,0,0,0,0,0,0,0,0,0,0,0,0,0,0,1.285,1.2851,0,1.2901,1.2902,1.2903,1.2886,1.2885,1.2884,1.2883,1.2934,1.2937,1.2939,0,0,0,0,0,0,0,0,0,0,0,0,0,1.2739,1.2741,1.285,1.2851,1.2852,1.2901,1.2902,1.2903,1.2886,1.2885,1.2884,1.2883,1.2934,1.2936,1.2939,0,0,0,0,0,0,0,0,0,0,0,0,0,1.2788,1.2741,1.285,1.2849,1.285,1.2901,1.2902,1.2903,1.2887,1.2885,1.2883,1.2882,1.2933,1.2936,1.294,1.2995,0,0,1.2951,1.2952,0,0,0,0,0,0,0,0,1.2785,1.2792,1.2849,1.285,1.285,1.2886,1.2882,1.2934,1.2887,1.2873,1.2883,1.2881,1.2919,1.2924,1.2937,1.2997,1.2999,1.2951,1.2953,1.2955,1.2956,0,0,0,0,0,0,0,1.2782,1.279,1.287,1.285,1.2851,1.2847,1.2852,1.2891,1.2905,1.2874,1.2873,1.2879,1.2919,1.2934,1.2938,1.3,1.2951,1.2954,1.2956,1.2958,1.3109,1.311,0,0,0,0,0,0,1.2778,1.2787,1.2869,1.2872,1.2813,1.285,1.2856,1.2876,1.2904,1.2907,1.288,1.2878,1.2928,1.2934,1.294,1.3006,1.2955,1.2958,1.296,1.3107,1.3109,1.3111,0,0,0,0,0,0,1.2776,1.2786,1.2867,1.2829,1.2839,1.2854,1.2876,1.2878,1.2892,1.2909,1.2911,1.2893,1.2927,1.2935,1.2981,1.3008,1.296,1.2963,1.3104,1.3107,1.311,1.3139,0,0,0,0,0,0,1.2773,1.2785,1.2806,1.283,1.2842,1.2907,1.2878,1.288,1.2898,1.2896,1.2921,1.2924,1.2927,1.2976,1.2985,1.3012,1.2966,1.3102,1.3106,1.3109,1.3136,1.3143,1.3148,0,0,0,0,0,1.2769,1.2811,1.2807,1.2817,1.2868,1.2909,1.2915,1.2918,1.2901,1.2922,1.2933,1.2923,1.3004,1.2981,1.2991,1.3019,1.31,1.3105,1.3109,1.3133,1.3141,1.3148,0,0,0,0,0,0,1.2789,1.2814,1.2809,1.2861,1.2883,1.2906,1.2932,1.2927,1.2953,1.295,1.2952,1.2958,1.3006,1.3017,1.2991,1.3075,1.305,1.3056,1.3065,1.3073,1.3079,1.3074,1.2969,0,0,0,0,0,1.2799,1.2831,1.2851,1.2895,1.2906,1.2918,1.2936,1.2936,1.2959,1.2968,1.2982,1.3004,1.3035,1.3055,1.3084,1.3138,1.3144,1.3163,1.3169,1.3174,1.3179,1.321,1.3218,1.3125,1.3125,1.3125,0,0,1.2821,1.2839,1.2858,1.29,1.2916,1.2949,1.2925,1.296,1.2984,1.2973,1.3017,1.3029,1.3054,1.3105,1.3128,1.3116,1.3207,1.318,1.3184,1.3186,1.3215,1.3224,1.3232,1.3128,1.3127,1.3127,0,0,1.2877,1.2894,1.2932,1.295,1.2977,1.2984,1.2994,1.3018,1.3026,1.3071,1.3063,1.3092,1.3145,1.3163,1.3179,1.3245,1.3237,1.3254,1.3286,1.3316,1.3323,1.333,1.3353,1.3361,1.326,1.326,1.326,0,1.29,1.2949,1.2953,1.2989,1.3007,1.3,1.3039,1.3056,1.309,1.3103,1.309,1.3157,1.3173,1.3228,1.3245,1.3258,1.3269,1.325,1.3322,1.3329,1.3335,1.3357,1.3366,1.3262,1.3261,1.3261,1.3261,0,1.2976,1.301,1.3038,1.3072,1.3094,1.3132,1.3142,1.3164,1.3163,1.3172,1.3219,1.3239,1.3272,1.3286,1.3285,1.3342,1.3334,1.3321,1.3296,1.3346,1.3366,1.3375,1.3264,1.3264,1.3263,1.3263,0,0,1.3043,1.3081,1.3091,1.3107,1.3137,1.3163,1.3201,1.3234,1.3253,1.3278,1.3309,1.3355,1.3345,1.3363,1.3365,1.3391,1.3442,1.3376,1.3377,1.3387,1.3506,1.3514,1.3524,1.3438,1.344,1.3441,1.3504,0,1.3101,1.3168,1.3173,1.3233,1.3264,1.3259,1.3292,1.3314,1.3325,1.3353,1.3365,1.3397,1.3381,1.3392,1.3418,1.3431,1.3466,1.3426,1.3467,1.3468,1.3459,1.3535,1.3543,1.3601,1.3512,1.3513,1.3514,0,1.3177,1.3205,1.3268,1.3294,1.3308,1.3337,1.3369,1.3397,1.3422,1.3428,1.345,1.3449,1.3488,1.3463,1.3518,1.349,1.3508,1.3517,1.3519,1.3522,1.3493,1.3539,1.362,1.3628,1.3527,1.3526,1.3525,0,1.3219,1.3273,1.3317,1.3331,1.3363,1.3384,1.3399,1.3423,1.3443,1.3471,1.3484,1.3516,1.3534,1.3559,1.3567,1.3548,1.3621,1.3597,1.3627,1.3627,1.3641,1.364,1.3725,1.3654,1.3654,1.3654,1.3654,0,1.3282,1.3321,1.3337,1.3364,1.3407,1.3414,1.3457,1.3471,1.3493,1.3523,1.3521,1.3549,1.3558,1.3589,1.3595,1.3639,1.3648,1.3653,1.3654,1.3653,1.3652,1.3663,1.3659,1.3656,1.3656,1.3655,1.3655,0,1.3336,1.3348,1.3396,1.3424,1.3432,1.3462,1.3486,1.3512,1.3523,1.3562,1.3571,1.3588,1.3624,1.3635,1.3678,1.3682,1.3734,1.3732,1.3725,1.3725,1.3754,1.3751,1.3849,1.3862,1.3784,1.3784,1.3785,0,1.3374,1.3404,1.3435,1.3455,1.3471,1.3503,1.3524,1.3533,1.3555,1.3588,1.361,1.3646,1.3675,1.3732,1.3748,1.3782,1.378,1.3812,1.3784,1.3782,1.3779,1.3777,1.378,1.3816,1.3817,1.3818,1.3818,0,1.3442,1.3447,1.3477,1.351,1.3535,1.3562,1.3587,1.3604,1.3617,1.3642,1.3678,1.3701,1.3745,1.3781,1.3815,1.383,1.3826,1.3827,1.3836,1.3834,1.3828,1.3831,1.3738,1.3824,1.3824,1.3823,1.3823,1.3823,1.3488,1.3515,1.3541,1.3575,1.3596,1.362,1.3647,1.3662,1.3693,1.373,1.3733,1.3773,1.38,1.3845,1.3862,1.3894,1.3885,1.3897,1.39,1.3903,1.3905,1.3825,1.39,1.39,1.39,1.39,1.39,0,1.3555,1.3572,1.3604,1.364,1.3667,1.3663,1.3691,1.3714,1.3749,1.3774,1.3803,1.3846,1.3881,1.3901,1.3936,1.3958,1.3957,1.3966,1.3964,1.3968,1.3911,1.39,1.3966,1.3966,1.3966,1.3966,1.3966,1.3966,1.3593,1.3637,1.3646,1.3701,1.3718,1.3757,1.3774,1.3797,1.3817,1.3865,1.3894,1.3907,1.3931,1.3968,1.4,1.4005,1.4018,1.4028,1.4032,1.3979,1.3972,1.3965,1.3954,1.4031,1.4031,1.4086,1.4086,1.4086]}]]